TimeCST,TemperatureF,Dew PointF,Humidity,Sea Level PressureIn,VisibilityMPH,Wind Direction,Wind SpeedMPH,Gust SpeedMPH,PrecipitationIn,Events,Conditions,WindDirDegrees,DateUTC
12:00 AM,-32,-40,46,29.21,15,SSE,3.5,,,Snow,Snow,160,2013-11-15 06:00:00
12:00 AM,-31.0,-40.0,62,29.21,15.0,SE,4.6,-,N/A,,Clear,140,2013-11-15 06:00:00
1:00 AM,-27.4,-36.4,62,29.22,15.0,ESE,2.3,-,N/A,,Clear,110,2013-11-15 07:00:00
2:00 AM,-29.2,-38.2,62,29.24,15.0,ESE,2.3,-,N/A,,Clear,120,2013-11-15 08:00:00
3:00 AM,-31.0,-40.0,62,29.26,15.0,SSE,2.3,-,N/A,,Clear,150,2013-11-15 09:00:00
4:00 AM,-29.2,-40.0,56,29.28,15.0,Calm,Calm,-,N/A,,Clear,0,2013-11-15 10:00:00
5:00 AM,-32.8,-41.8,62,29.30,15.0,Calm,Calm,-,N/A,,Clear,0,2013-11-15 11:00:00
6:00 AM,-32,-41,43,29.31,15,East,2.3,,,Snow,Snow,90,2013-11-15 12:00:00
6:00 AM,-32.8,-40.0,68,29.31,15.0,East,2.3,-,N/A,,Clear,90,2013-11-15 12:00:00
7:00 AM,-27.4,-36.4,62,29.33,15.0,Calm,Calm,-,N/A,,Clear,0,2013-11-15 13:00:00
8:00 AM,-29.2,-36.4,68,29.35,15.0,Calm,Calm,-,N/A,,Partly Cloudy,0,2013-11-15 14:00:00
9:00 AM,-31.0,-40.0,62,29.38,15.0,Calm,Calm,-,N/A,,Partly Cloudy,0,2013-11-15 15:00:00
10:00 AM,-29.2,-38.2,62,29.39,15.0,Calm,Calm,-,N/A,,Partly Cloudy,0,2013-11-15 16:00:00
11:00 AM,-29.2,-38.2,62,29.41,15.0,SSE,2.3,-,N/A,,Scattered Clouds,160,2013-11-15 17:00:00
12:00 PM,-28,-38,39,29.43,15,Calm,Calm,,,Snow,Snow,,2013-11-15 18:00:00
12:00 PM,-29.2,-38.2,62,29.43,15.0,Calm,Calm,-,N/A,,Partly Cloudy,0,2013-11-15 18:00:00
1:00 PM,-27.4,-36.4,62,29.44,15.0,SE,2.3,-,N/A,,Partly Cloudy,130,2013-11-15 19:00:00
2:00 PM,-27.4,-36.4,62,29.47,15.0,ESE,2.3,-,N/A,,Partly Cloudy,110,2013-11-15 20:00:00
3:00 PM,-25.6,-36.4,57,29.48,15.0,Calm,Calm,-,N/A,,Partly Cloudy,0,2013-11-15 21:00:00
4:00 PM,-29.2,-38.2,62,29.51,15.0,Calm,Calm,-,N/A,,Partly Cloudy,0,2013-11-15 22:00:00
5:00 PM,-29.2,-38.2,62,29.52,15.0,Calm,Calm,-,N/A,,Partly Cloudy,0,2013-11-15 23:00:00
6:00 PM,-28,-37,42,29.55,15,Calm,Calm,,,Snow,Snow,,2013-11-16 00:00:00
6:00 PM,-27.4,-36.4,62,29.55,15.0,Calm,Calm,-,N/A,,Partly Cloudy,0,2013-11-16 00:00:00
7:00 PM,-31.0,-40.0,62,29.56,15.0,East,2.3,-,N/A,,Partly Cloudy,80,2013-11-16 01:00:00
8:00 PM,-29.2,-38.2,62,29.56,15.0,Calm,Calm,-,N/A,,Partly Cloudy,0,2013-11-16 02:00:00
9:00 PM,-29.2,-38.2,62,29.57,15.0,West,3.5,-,N/A,,Partly Cloudy,280,2013-11-16 03:00:00